sat.trackr.live / text

‹ back to catalog

STARLINK-32640

NORAD 62198 · 2024-229G

PAYLOAD ACTIVE UNKNOWN

§ Identity

Operator
Country
US
Launch date
2024-12-04
Launch site
AFETR
Launch vehicle
Mass (kg)
RCS (m²)

Purposes: comms

External: N2YO · Heavens-Above · Gunter

§ Orbital elements

Epoch: 2026-09-21T07:49:39.264096Z

Period
94.27 min
Inclination
43.0039°
Eccentricity
0.0002100
Mean motion
15.27598858 rev/d
Perigee alt
481.6 km
Apogee alt
484.4 km
Semi-major
6,861.1 km
B*
5.7360e-4
RAAN
245.6761°
Arg perigee
283.6652°
Mean anomaly
76.3966°
Rev number
10,048

§ Raw data

STARLINK-326401 62198U 24229G   26264.32614889  .00015565  00000+0  57360-3 0  99912 62198  43.0039 245.6761 0002100 283.6652  76.3966 15.27598858100481

JSON: /api/v1/satellites/62198 · /tle

For live sub-satellite position, see the globe view (requires WebGL).

§ Visibility from observer

Set your observer location to see the next 7 days of passes ≥ 10°. The values pass through the URL so the page stays shareable.

No JS? Fill the form by hand. The geolocation button needs JavaScript.